This is the latest recevied weather packets stored in our database for station/object KC5TIL-3. If no packets are shown the sender has not sent any weather packets the latest 10 day(s).
| Time | Temp. | Humidity | Pressure | Rain* | Wind** | Luminosity | Snow |
|---|---|---|---|---|---|---|---|
| 1788051054 | 36.11° C | 11% | 1010.8 hPa | 0 mm | 2.68 m/s, 148° | - | - |
| 1788050756 | 36.11° C | 11% | 1010.8 hPa | 0 mm | 2.68 m/s, 139° | - | - |
| 1788050455 | 36.11° C | 11% | 1010.8 hPa | 0 mm | 1.79 m/s, 184° | - | - |
| 1788050156 | 36.67° C | 10% | 1010.8 hPa | 0 mm | 1.79 m/s, 150° | - | - |
| 1788049858 | 36.67° C | 10% | 1010.8 hPa | 0 mm | 2.68 m/s, 125° | - | - |
| 1788049557 | 36.67° C | 10% | 1010.8 hPa | 0 mm | 1.79 m/s, 142° | - | - |
| 1788049259 | 36.67° C | 10% | 1010.8 hPa | 0 mm | 2.68 m/s, 155° | - | - |
| 1788048961 | 36.67° C | 10% | 1010.8 hPa | 0 mm | 2.24 m/s, 188° | - | - |
| 1788048659 | 36.67° C | 10% | 1010.8 hPa | 0 mm | 3.13 m/s, 213° | - | - |
| 1788048361 | 37.22° C | 10% | 1010.8 hPa | 0 mm | 3.13 m/s, 161° | - | - |
| 1788048063 | 37.22° C | 10% | 1010.8 hPa | 0 mm | 2.68 m/s, 129° | - | - |
| 1788047762 | 37.22° C | 10% | 1010.8 hPa | 0 mm | 2.24 m/s, 158° | - | - |
| 1788047463 | 37.22° C | 10% | 1010.8 hPa | 0 mm | 2.68 m/s, 212° | - | - |
| 1788047165 | 37.22° C | 10% | 1010.8 hPa | 0 mm | 1.79 m/s, 174° | - | - |
| 1788046864 | 37.22° C | 10% | 1010.8 hPa | 0 mm | 1.34 m/s, 190° | - | - |
| 1788046566 | 37.22° C | 10% | 1010.8 hPa | 0 mm | 2.68 m/s, 147° | - | - |
| 1788046268 | 37.22° C | 10% | 1010.8 hPa | 0 mm | 1.79 m/s, 131° | - | - |
| 1788045962 | 37.22° C | 10% | 1010.8 hPa | 0 mm | 2.24 m/s, 131° | - | - |
| 1788045659 | 37.22° C | 10% | 1010.8 hPa | 0 mm | 3.13 m/s, 213° | - | - |
| 1788045361 | 37.22° C | 10% | 1010.8 hPa | 0 mm | 2.24 m/s, 184° | - | - |
| 1788045059 | 37.22° C | 10% | 1010.8 hPa | 0 mm | 2.68 m/s, 108° | - | - |
| 1788044761 | 37.22° C | 10% | 1010.8 hPa | 0 mm | 2.24 m/s, 203° | - | - |
| 1788044463 | 37.22° C | 10% | 1010.8 hPa | 0 mm | 3.58 m/s, 145° | - | - |
| 1788044161 | 37.22° C | 10% | 1010.8 hPa | 0 mm | 2.24 m/s, 130° | - | - |
| 1788043863 | 37.22° C | 10% | 1010.8 hPa | 0 mm | 4.02 m/s, 120° | - | - |
* Rain latest hour (hover to see other rain measurements)
** Current wind speed in m/s (hover to see current wind gust speed)